CZ-2D DEB, 35271

Orbit data source: Space-Track

CZ-2D DEB, 35271 is space debris in SSO originally from a launch on Tue, 05 Jul 2005 UTC launched from the Jiuquan Satellite Launch Center, China (JSC). Debris objects in space refer to the collection of defunct objects orbiting the Earth. Examples of debris include non-operational satellites, rocket bodies, and fragments generated from explosions, collisions, or faulty payload assembly.

Loading next visibility...
CZ-2D DEB details
Identifier
35271, 2005-024K
Orbit
SSO
Last TLE update1 day ago
Origin
Flag of CNCASC (CN / PRC)
ManufacturerUnknown
MissionSpacecraft
Bus & MotorUnknown
MassUnknown
Launch date (UTC)
2005-07-05 (19 years ago)
Launch vehicleUnknown
Launch site
Jiuquan Satellite Launch Center, China (JSC)
Object type
Payload
Rocket body
Debris
Shape & HBRUnknown
Radar Cross SectionSmall (<0.1 m²)

Expand to show TLE details & history

TLE from 1 day ago
0 CZ-2D DEB
1 35271U 05024K   24360.34638497  .00029132  00000-0  73347-3 0  9992
2 35271  97.2323  20.8115 0007075 353.7660   6.3497 15.39846430 20826
Epoch: 2024-12-25T08:18Z
Definitive object data (Epoch: 2024-12-25T08:18:47.661Z)
Latitude-0.00003°
Longitude161.77147°
Altitude444.885 km
Speed7.648 km/s
True Right ascension01h 23m 14s
True Declination0° 00' 00"
Sunlit
Object was in daylight at TLE epoch
Visualization TLE readout
Latitude-76.47356°
Longitude-165.44558°
Altitude472.102 km
Speed7.63 km/s
Apparent Right ascension00h 20m 57s
Apparent Declination-61° 29' 23"
Sunlit
Object is in daylight
Visualization observer readout
Local Sidereal Time11:24:11
Azimuth197.241° SSW
Elevation-66.748°
Doppler factor1
Orbital elements
Apogee altitude448.321 km
Perigee altitude438.669 km
Semi-major axis6,821.632 km
Eccentricity0.0007075
Inclination97.2323°
RAAN20.8115°
Arg. of periapsis353.766°
True anomaly6.35867°
Mean anomaly6.3497°
Eccentric anomaly6.35419°
Mean motion3.85222 °/min
BSTAR0.00073347
Orbital period93.45 mins
Loading maneuver chart data...
Loading historical data...
Loading historical data...
Loading historical data...
Loading historical data...
Loading historical data...
Loading historical data...
Loading historical data...

CZ-2D DEB Visibility forecast

Observer location: undefined°, undefined

Span
Click to sort rows by Start time (UTC) header in descending order
Start Az.
Max El. time (UTC)
Max El. Az.
Max El.
End time (UTC)
End Az.
6 mins2024-12-26 14:29:44.890Z10.091° NNE2024-12-26 14:32:44.890Z344.922° N44.162°2024-12-26 14:35:44.890Z195.265° SSW
|